Regional Weather Roundup
Issued by NWS

Home | Current Version | Previous Version | Graphics & Text | Print | Product List | Glossary On
Versions: 1 2 3 4 5 6 7 8 9 10 11 12 13 14 15 16 17 18 19 20 21 22 23 24 25 26 27 28 29 30 31 32 33 34 35 36 37 38 39 40 41 42 43 44 45 46 47 48 49 50
239
ASUS43 KLOT 260904
RWRIL

ILLINOIS REGIONAL WEATHER ROUNDUP
NATIONAL WEATHER SERVICE CHICAGO/ROMEOVILLE IL
400 AM CDT TUE SEP 26 2017

NOTE: "FAIR" INDICATES FEW OR NO CLOUDS BELOW 12,000 FEET WITH NO
SIGNIFICANT WEATHER AND/OR OBSTRUCTIONS TO VISIBILITY.

* THESE STATIONS ARE NOT UNDER NWS QUALITY CONTROL. THEY ALSO MAY NOT
  REPORT WEATHER SUCH AS PRECIPITATION OR FOG.

ILZ001-002-007-009-015-016-024-261000-
NORTHWEST ILLINOIS

CITY           SKY/WX    TMP DP  RH WIND       PRES   REMARKS
MOLINE         CLOUDY    70  67  90 S5        29.91S
STERLING*      CLOUDY    65  62  90 CALM      29.94R
SAVANNA*       LGT RAIN  66  65  94 E3        29.93S
$$

ILZ003-004-008-010-011-017-018-261000-
NORTH CENTRAL ILLINOIS

CITY           SKY/WX    TMP DP  RH WIND       PRES   REMARKS
ROCKFORD       PTCLDY    65  59  81 CALM      29.94S
FREEPORT*      PTCLDY    64  62  93 CALM      29.96S
ROCHELLE*      CLEAR     62  58  88 CALM      29.94R
DE KALB*       CLEAR     64  59  84 S6        29.94S
PERU*          PTCLDY    67  60  77 S7        29.93S
$$

ILZ005-006-012>014-019>023-261000-
NORTHEAST ILLINOIS

CITY           SKY/WX    TMP DP  RH WIND       PRES   REMARKS
CHICAGO-OHARE  CLEAR     72  57  59 CALM      29.92F
CHICAGO-MIDWAY CLEAR     74  58  57 S6        29.93S
AURORA         CLEAR     65  61  87 SE3       29.94S
LANSING*       CLEAR     67  60  77 CALM      29.95S
JOLIET*        CLEAR     67  62  85 CALM      29.94S
WAUKEGAN       CLEAR     64  61  90 CALM      29.92S
DUPAGE AIRPORT CLEAR     67  60  78 S3        29.93S
KANKAKEE*      CLEAR     64  61  88 CALM      29.96S
WHEELING       CLEAR     68  62  81 CALM      29.94S
MORRIS*        CLEAR     66  60  82 SE3       29.93S
ROMEOVILLE*    CLEAR     67  59  76 S7        29.94S
NORTHERLY ISL    N/A     76  56  49 S5          N/A
$$

LMZ740>746-261000-
SOUTHERN LAKE MICHIGAN

STATION/POSITION SKY/WX   TEMP    WIND        PRES    VSBY  WAVE
                          AIR SEA DIR/SP/G                  HT/PER
                          (F)     (DEG/KT/KT) (MB)    (MI)  (FT/S)
SOUTHERN BUOY              74 71  170/ 10/ 10 1013.5          0
WILMETTE HARBOR            72 71  170/  4/  4   N/A           1
HARRISON CRIB              76     180/ 11/ 11   N/A
BURNHAM HARBOR             76                   N/A
CALUMET HARBOR             74     180/  4/  5 1013.1F
BURNS HARBOR               73     180/  9/ 12 1014.2S
MICHIGAN CITY              73     150/  7/  9   N/A
MICHIGAN CITY 6N           72 71  180/  6/  8   N/A           1
ST. JOSEPH                 73 71  190/  6/  8 1013.8F         1
$$

ILZ025>027-034>036-040-047-049-050-058-095>099-261000-
WEST-CENTRAL ILLINOIS

CITY           SKY/WX    TMP DP  RH WIND       PRES   REMARKS
QUINCY         CLOUDY    73  63  70 S6        29.92F
GALESBURG*     CLOUDY    67  64  90 CALM      29.94F
MACOMB*        CLOUDY    69  64  86 CALM      29.95S
JACKSONVILLE*  CLOUDY    73  62  68 S6        29.94S
PITTSFIELD*    CLOUDY    68  64  85 CALM      29.95S
$$

ILZ028>032-037-038-041>044-048-051>054-059>061-261000-
CENTRAL ILLINOIS

CITY           SKY/WX    TMP DP  RH WIND       PRES   REMARKS
PONTIAC        CLEAR     64  63  97 CALM      29.95S
BLOOMINGTON    CLEAR     67  61  81 SW6       29.97S
DECATUR        CLEAR     64  60  87 CALM      29.96S
PEORIA         CLOUDY    72  64  76 SW5       29.93F
LACON*         MOCLDY    71  63  73 S3        29.92S
LINCOLN*       CLOUDY    66  63  90 S3        29.95S
SPRINGFIELD    PTCLDY    72  63  73 CALM      29.94F
TAYLORVILLE    PTCLDY    66  62  85 S5        29.96S
$$

ILZ033-039-045-046-055>057-062-063-261000-
EAST-CENTRAL ILLINOIS

CITY           SKY/WX    TMP DP  RH WIND       PRES   REMARKS
RANTOUL*       CLEAR     67  63  85 CALM      29.97S
MATTOON        CLEAR     70  65  84 S6        29.96S
PARIS*         CLEAR     65  63  94 CALM      29.99S
$$

ILZ079-100>102-261000-
SOUTHWEST ILLINOIS

CITY           SKY/WX    TMP DP  RH WIND       PRES   REMARKS
ALTON          CLOUDY    68  64  86 CALM      29.96S
BELLEVILLE     PTCLDY    65  63  93 CALM      29.95R
CAHOKIA*       CLOUDY    67  61  81 CALM      29.95S
SPARTA*        CLEAR     64  62  92 CALM      29.98R
$$

ILZ064>066-069>071-074>076-080>082-084>086-088>090-092>094-261000-
SOUTH-CENTRAL ILLINOIS

CITY           SKY/WX    TMP DP  RH WIND       PRES   REMARKS
CARBONDALE     CLEAR     63  63 100 CALM      29.96S FOG
CAIRO*         FOG       63  63 100 CALM      29.96S VSB 1/2
EFFINGHAM*     CLEAR     66  63  91 CALM      29.98S
MARION         CLEAR     66  66 100 CALM      29.98S
MT. VERNON       N/A     62  62 100 CALM      29.97S
CENTRALIA*     CLEAR     64  62  94 CALM      29.96S
SALEM*         CLEAR     65  61  89 CALM      29.97S
METROPOLIS*    CLEAR     64  63  97 CALM      29.97S FOG
$$

ILZ067-068-072-073-078-083-087-091-261000-
SOUTHEAST ILLINOIS

CITY           SKY/WX    TMP DP  RH WIND       PRES   REMARKS
LAWRENCEVILLE  CLEAR     68  66  93 CALM      29.97S
FLORA*         PTCLDY    67  65  93 CALM      29.97S
FAIRFIELD*     CLEAR     65  62  92 CALM      29.96S
HARRISBURG*    CLEAR     64  63  98 CALM      29.97S
ROBINSON*      CLEAR     62  62  99 CALM      29.98S
CARMI*         CLEAR     63  63  98 CALM      29.97S
$$

ABBREVIATIONS USED IN REMARKS
   TC - TEMPERATURE IN CELSIUS
  WCI - WIND CHILL INDEX
   HX - HEAT INDEX
  VSB - VISIBILITY
$$





USA.gov is the U.S. government's official web portal to all federal, state and local government web resources and services.